Fort Myers Airport, FL

8:41 PM EDT on April 22, 2018 (GMT -0400)
Southwest Florida International

Weather History for KRSW - November, 2013

Change the Weather History Date:

Wednesday, November 20, 2013

  Actual Average Record
Temperature  
Mean Temperature 76 °F -  
Max Temperature 86 °F 80 °F 88 °F (1973)
Min Temperature 66 °F 61 °F 33 °F (1996)
Cooling Degree Days 11    
Growing Degree Days 26 (Base 50)    
Moisture  
Dew Point 67 °F    
Average Humidity 83    
Maximum Humidity 100    
Minimum Humidity 46    
Precipitation  
Precipitation 0.00 in - - ()
Sea Level Pressure  
Sea Level Pressure 30.00 in    
Wind  
Wind Speed 5 mph (NE)    
Max Wind Speed 10 mph    
Max Gust Speed -    
Visibility 8 miles    
Events Fog    
Averages and records for this station are not official NWS values.
T = Trace of Precipitation, MM = Missing Value Source: NWS Daily Summary

Daily Weather History Graph

Daily Weather History Graph

Search for Another Location

Airport or City:

Astronomy

Nov. 20, 2013 Rise Set
Actual Time 6:50 AM EST 5:35 PM EST
Civil Twilight 6:25 AM EST 5:59 PM EST
Nautical Twilight 5:57 AM EST 6:28 PM EST
Astronomical Twilight 5:29 AM EST 6:55 PM EST
Moon 8:16 PM EST (11/20) 9:13 AM EST (11/20)
Length of Visible Light 11h 34m
Length of Day
10h 45m
Waning Gibbous, 91% of the Moon is Illuminated
Nov 20
Waning Gibbous
Nov 25
Last Quarter
Dec 2
New
Dec 9
First Quarter
Dec 17
Full

Hourly Weather History & Observations

Time (EST) Temp. Heat Index Dew Point Humidity Pressure Visibility Wind Dir Wind Speed Gust Speed Precip Events Conditions
12:53 AM 70.0 °F - 69.1 °F 97% 29.95 in 10.0 mi NNE 3.5 mph - N/A   Partly Cloudy
1:08 AM 71.6 °F - 69.8 °F 94% 29.95 in 10.0 mi NNE 5.8 mph - N/A   Mostly Cloudy
1:25 AM 69.8 °F - 68.0 °F 94% 29.96 in 10.0 mi NE 6.9 mph - N/A   Scattered Clouds
1:53 AM 69.1 °F - 66.9 °F 93% 29.95 in 10.0 mi NNE 5.8 mph - N/A   Clear
2:53 AM 68.0 °F - 64.9 °F 90% 29.95 in 10.0 mi NE 5.8 mph - N/A   Clear
3:53 AM 66.9 °F - 64.9 °F 93% 29.96 in 10.0 mi Calm Calm - N/A   Clear
4:53 AM 66.9 °F - 64.0 °F 90% 29.96 in 10.0 mi NE 4.6 mph - N/A   Clear
5:22 AM 66.2 °F - 64.4 °F 94% 29.97 in 10.0 mi NE 5.8 mph - N/A   Scattered Clouds
5:27 AM 66.2 °F - 64.4 °F 94% 29.97 in 10.0 mi NNE 6.9 mph - N/A   Mostly Cloudy
5:53 AM 66.0 °F - 64.9 °F 96% 29.98 in 1.8 mi NE 3.5 mph - N/A   Overcast
6:49 AM 66.2 °F - 66.2 °F 100% 30.00 in 0.8 mi NE 5.8 mph - N/A   Mist
6:53 AM 66.0 °F - 66.0 °F 100% 29.99 in 0.5 mi NE 6.9 mph - N/A Fog Fog
7:08 AM 66.2 °F - 66.2 °F 100% 30.01 in 0.2 mi NNE 4.6 mph - N/A Fog Fog
7:53 AM 66.9 °F - 66.9 °F 100% 30.01 in 0.5 mi NE 6.9 mph - N/A Fog Fog
8:26 AM 68.0 °F - 66.2 °F 94% 30.03 in 1.5 mi NE 4.6 mph - N/A   Overcast
8:42 AM 68.0 °F - 66.2 °F 94% 30.03 in 3.0 mi ENE 4.6 mph - N/A   Overcast
8:53 AM 68.0 °F - 68.0 °F 100% 30.03 in 6.0 mi ENE 3.5 mph - N/A   Overcast
9:37 AM 71.6 °F - 68.0 °F 88% 30.04 in 10.0 mi Calm Calm - N/A   Scattered Clouds
9:53 AM 75.0 °F - 69.1 °F 82% 30.03 in 10.0 mi East 3.5 mph - N/A   Clear
10:53 AM 80.1 °F 82.7 °F 68.0 °F 67% 30.03 in 10.0 mi ENE 3.5 mph - N/A   Clear
11:53 AM 82.0 °F 84.1 °F 66.0 °F 58% 30.01 in 10.0 mi East 4.6 mph - N/A   Clear
12:53 PM 82.9 °F 84.4 °F 64.0 °F 53% 29.98 in 10.0 mi Variable 3.5 mph - N/A   Clear
1:53 PM 84.9 °F 86.6 °F 64.9 °F 51% 29.96 in 10.0 mi East 4.6 mph - N/A   Clear
2:53 PM 84.9 °F 86.6 °F 64.9 °F 51% 29.95 in 10.0 mi NNW 4.6 mph - N/A   Clear
3:53 PM 86.0 °F 86.8 °F 63.0 °F 46% 29.96 in 10.0 mi Variable 3.5 mph - N/A   Clear
4:53 PM 82.0 °F 84.9 °F 68.0 °F 62% 29.97 in 10.0 mi WNW 4.6 mph - N/A   Clear
5:53 PM 79.0 °F - 66.9 °F 66% 29.99 in 10.0 mi NNW 4.6 mph - N/A   Clear
6:03 PM 78.8 °F - 66.2 °F 65% 30.00 in 10.0 mi NNW 4.6 mph - N/A   Partly Cloudy
6:53 PM 77.0 °F - 66.9 °F 71% 30.02 in 10.0 mi North 3.5 mph - N/A   Partly Cloudy
7:53 PM 75.0 °F - 70.0 °F 84% 30.04 in 10.0 mi NE 6.9 mph - N/A   Partly Cloudy
8:53 PM 73.9 °F - 70.0 °F 87% 30.05 in 10.0 mi ENE 8.1 mph - N/A   Clear
9:53 PM 73.9 °F - 69.1 °F 85% 30.06 in 10.0 mi East 8.1 mph - N/A   Scattered Clouds
10:48 PM 73.4 °F - 69.8 °F 88% 30.08 in 10.0 mi ENE 8.1 mph - N/A   Partly Cloudy
10:53 PM 73.0 °F - 70.0 °F 90% 30.07 in 10.0 mi ENE 9.2 mph - N/A   Partly Cloudy
11:53 PM 73.0 °F - 70.0 °F 90% 30.06 in 10.0 mi ENE 10.4 mph - N/A   Mostly Cloudy